Weather History for KLAR - December, 2014

Change the Weather History Date:

Monday, December 22, 2014

  Actual Average Record
Temperature  
Mean Temperature 22 °F 21 °F  
Max Temperature 26 °F 32 °F 52 °F (1964)
Min Temperature 17 °F 10 °F -34 °F (1989)
Degree Days  
Heating Degree Days 43 44  
Month to date heating degree days 766 960  
Since 1 July heating degree days 2894 3272  
Cooling Degree Days 0 0  
Month to date cooling degree days 0 0  
Year to date cooling degree days 67 67  
Moisture  
Dew Point 17 °F    
Average Humidity 79    
Maximum Humidity 96    
Minimum Humidity 62    
Precipitation  
Precipitation 0.01 in 0.01 in 0.43 in (1948)
Month to date precipitation 0.04 0.24  
Year to date precipitation 13.74 10.84  
Sea Level Pressure  
Sea Level Pressure 29.76 in    
Wind  
Wind Speed 20 mph (NW)    
Max Wind Speed 31 mph    
Max Gust Speed 41 mph    
Visibility 5 miles    
Events Fog , Snow    
T = Trace of Precipitation, MM = Missing Value Source: NWS Daily Summary

Daily Weather History Graph

Daily Weather History Graph

Search for Another Location

Airport or City:

Trip Planner

Search our weather history database for the weather conditions in past years. The results will help you decide how hot, cold, wet, or windy it might be!

Date:

Astronomy

Dec. 22, 2014 Rise Set
Actual Time 7:25 AM MST 4:37 PM MST
Civil Twilight 6:54 AM MST 5:08 PM MST
Nautical Twilight 6:19 AM MST 5:43 PM MST
Astronomical Twilight 5:45 AM MST 6:16 PM MST
Moon 7:40 AM MST (12/22) 5:49 PM MST (12/22)
Length of Visible Light 10h 14m
Length of Day
9h 11m
New Moon, 1% of the Moon is Illuminated
Dec 22
New Moon
Dec 28
First Quarter
Jan 4
Full
Jan 13
Last Quarter
Jan 20
New

Hourly Weather History & Observations

Time (MST) Temp. Windchill Dew Point Humidity Pressure Visibility Wind Dir Wind Speed Gust Speed Precip Events Conditions
12:53 AM 23.0 °F 9.2 °F 19.9 °F 88% 29.69 in 10.0 mi NNW 17.3 mph - N/A   Partly Cloudy
1:53 AM 23.0 °F 10.6 °F 19.9 °F 88% 29.70 in 10.0 mi NNW 13.8 mph - N/A   Scattered Clouds
2:53 AM 23.0 °F 11.1 °F 17.1 °F 78% 29.71 in 10.0 mi NNW 12.7 mph - N/A   Mostly Cloudy
3:53 AM 25.0 °F 11.7 °F 16.0 °F 69% 29.71 in 10.0 mi NW 17.3 mph - N/A   Overcast
4:53 AM 23.0 °F 9.2 °F 15.1 °F 72% 29.71 in 10.0 mi NW 17.3 mph - 0.00 in   Mostly Cloudy
5:53 AM 21.0 °F 8.1 °F 12.0 °F 68% 29.73 in 10.0 mi WNW 13.8 mph - N/A   Clear
6:53 AM 19.9 °F 8.6 °F 12.0 °F 71% 29.74 in 10.0 mi WNW 10.4 mph - N/A   Mostly Cloudy
7:53 AM 25.0 °F 12.2 °F 14.0 °F 63% 29.71 in 10.0 mi WNW 16.1 mph - N/A   Overcast
8:53 AM 25.0 °F 10.2 °F 17.1 °F 72% 29.73 in 10.0 mi NW 21.9 mph 31.1 mph N/A   Overcast
9:53 AM 25.0 °F 9.9 °F 19.0 °F 78% 29.73 in 10.0 mi NNW 23.0 mph 26.5 mph N/A   Overcast
10:28 AM 25.0 °F 10.2 °F 19.9 °F 81% 29.68 in 1.8 mi NNW 21.9 mph 31.1 mph 0.00 in Snow Light Snow
10:38 AM 25.0 °F 10.2 °F 21.0 °F 85% 29.68 in 2.5 mi NNW 21.9 mph 31.1 mph 0.00 in Snow Light Snow
10:53 AM 25.0 °F 9.5 °F 21.0 °F 85% 29.73 in 1.8 mi NNW 24.2 mph 32.2 mph 0.00 in Snow Light Snow
11:00 AM 25.0 °F 9.2 °F 19.9 °F 81% 29.67 in 2.0 mi NW 25.3 mph 35.7 mph 0.00 in Snow Light Snow
11:04 AM 25.0 °F 8.1 °F 19.9 °F 81% 29.67 in 1.8 mi NNW 29.9 mph 35.7 mph 0.00 in Snow Light Snow
11:18 AM 24.1 °F 9.4 °F 21.0 °F 88% 29.67 in 0.8 mi NNW 20.7 mph 32.2 mph 0.00 in Snow Light Snow
11:25 AM 25.0 °F 9.9 °F 21.0 °F 85% 29.67 in 1.8 mi NNW 23.0 mph 32.2 mph 0.00 in Snow Light Snow
11:39 AM 24.1 °F 10.1 °F 19.9 °F 84% 29.68 in 0.8 mi NNW 18.4 mph 27.6 mph 0.00 in Snow Light Snow
11:41 AM 24.1 °F 10.6 °F 21.0 °F 88% 29.68 in 0.5 mi NNW 17.3 mph 25.3 mph 0.00 in Fog , Snow Snow
11:53 AM 23.0 °F 9.2 °F 21.0 °F 92% 29.74 in 0.2 mi NNW 17.3 mph 25.3 mph 0.00 in Fog , Snow Snow
12:36 PM 21.9 °F 6.2 °F 19.0 °F 89% 29.68 in 0.2 mi NNW 21.9 mph 33.4 mph 0.00 in Fog , Snow Heavy Snow
12:48 PM 23.0 °F 8.3 °F 19.4 °F 86% 29.66 in 0.5 mi NNW 19.6 mph 27.6 mph 0.01 in Fog , Snow Light Snow
12:50 PM 23.0 °F 8.0 °F 19.4 °F 86% 29.67 in 1.0 mi NW 20.7 mph 27.6 mph 0.01 in Snow Light Snow
12:53 PM 23.0 °F 7.6 °F 19.0 °F 85% 29.74 in 3.0 mi NW 21.9 mph - 0.01 in Snow Light Snow
1:12 PM 23.0 °F 7.6 °F 16.0 °F 74% 29.66 in 10.0 mi NW 21.9 mph 29.9 mph 0.00 in   Overcast
1:53 PM 24.1 °F 8.0 °F 16.0 °F 71% 29.73 in 10.0 mi NW 25.3 mph 34.5 mph 0.00 in   Overcast
2:53 PM 24.1 °F 7.1 °F 17.1 °F 75% 29.73 in 9.0 mi NW 28.8 mph 36.8 mph N/A   Mostly Cloudy
2:59 PM 23.0 °F 6.3 °F 18.0 °F 81% 29.67 in 1.8 mi NW 26.5 mph 36.8 mph 0.00 in Snow Light Snow
3:09 PM 21.9 °F 4.8 °F 19.0 °F 89% 29.68 in 0.5 mi NNW 26.5 mph 33.4 mph 0.00 in Fog , Snow Light Snow
3:14 PM 21.9 °F 6.2 °F 19.0 °F 89% 29.68 in 1.0 mi NNW 21.9 mph 31.1 mph 0.00 in Snow Light Snow
3:22 PM 23.0 °F 7.2 °F 19.0 °F 85% 29.69 in 3.0 mi NW 23.0 mph 29.9 mph 0.00 in Snow Light Snow
3:27 PM 23.0 °F 6.0 °F 19.9 °F 88% 29.69 in 1.8 mi NW 27.6 mph 34.5 mph 0.00 in Snow Light Snow
3:53 PM 21.0 °F 4.3 °F 18.0 °F 88% 29.77 in 0.8 mi NNW 24.2 mph 39.1 mph 0.00 in Snow Light Snow
4:01 PM 19.9 °F 3.9 °F 17.1 °F 89% 29.70 in 3.0 mi NNW 20.7 mph 29.9 mph 0.00 in Snow Light Snow
4:10 PM 19.9 °F 3.9 °F 16.0 °F 85% 29.71 in 10.0 mi NW 20.7 mph 28.8 mph 0.00 in   Scattered Clouds
4:53 PM 19.9 °F 4.8 °F 17.1 °F 89% 29.81 in 3.0 mi NW 18.4 mph - 0.00 in Snow Light Snow
5:21 PM 19.0 °F 4.5 °F 17.1 °F 92% 29.74 in 9.0 mi NW 16.1 mph - 0.00 in Snow Light Snow
5:53 PM 21.0 °F 5.7 °F 17.1 °F 85% 29.85 in 10.0 mi NW 19.6 mph - 0.00 in   Overcast
6:20 PM 19.9 °F 3.2 °F 16.0 °F 85% 29.76 in 10.0 mi NNW 23.0 mph 29.9 mph N/A   Mostly Cloudy
6:53 PM 19.9 °F 3.5 °F 14.0 °F 78% 29.90 in 10.0 mi NW 21.9 mph 29.9 mph N/A   Overcast
7:11 PM 18.0 °F 0.6 °F 12.9 °F 81% 29.79 in 10.0 mi NW 23.0 mph 31.1 mph N/A   Mostly Cloudy
7:53 PM 18.0 °F 0.2 °F 12.0 °F 78% 29.88 in 10.0 mi NW 24.2 mph - N/A   Partly Cloudy
8:07 PM 19.0 °F 0.6 °F 14.0 °F 81% 29.80 in 1.5 mi NW 27.6 mph 33.4 mph 0.00 in Snow Light Snow
8:11 PM 19.0 °F 1.6 °F 15.1 °F 85% 29.80 in 0.5 mi NW 24.2 mph 34.5 mph 0.00 in Fog , Snow Snow
8:19 PM 19.0 °F 1.3 °F 16.0 °F 88% 29.80 in 0.5 mi NW 25.3 mph 32.2 mph 0.00 in Fog , Snow Snow
8:30 PM 19.0 °F 1.0 °F 16.0 °F 88% 29.80 in 1.0 mi NW 26.5 mph 32.2 mph 0.00 in Snow Light Snow
8:38 PM 19.0 °F 0.6 °F 16.0 °F 88% 29.80 in 2.0 mi NW 27.6 mph 35.7 mph 0.00 in Snow Light Snow
8:49 PM 19.4 °F 0.8 °F 15.8 °F 86% 29.80 in 1.2 mi NW 28.8 mph 35.7 mph 0.00 in Snow Light Snow
8:53 PM 19.0 °F 0.3 °F 16.0 °F 88% 29.89 in 1.5 mi NW 28.8 mph 35.7 mph 0.00 in Snow Light Snow
8:57 PM 19.0 °F -0.3 °F 15.1 °F 85% 29.80 in 3.0 mi NW 31.1 mph 39.1 mph 0.00 in Snow Light Snow
9:53 PM 17.1 °F 1.5 °F 14.0 °F 88% 29.93 in 10.0 mi NNW 17.3 mph 24.2 mph 0.00 in   Partly Cloudy
10:36 PM 19.0 °F 2.7 °F 15.1 °F 85% 29.84 in 1.8 mi NNW 20.7 mph 27.6 mph 0.00 in Snow Light Snow
10:53 PM 19.0 °F 4.0 °F 16.0 °F 88% 29.94 in 1.5 mi NNW 17.3 mph 24.2 mph 0.00 in Snow Light Snow
11:05 PM 19.0 °F 3.6 °F 16.0 °F 88% 29.85 in 2.5 mi NW 18.4 mph - 0.00 in Snow Light Snow
11:09 PM 19.0 °F 3.2 °F 16.0 °F 88% 29.85 in 1.8 mi NW 19.6 mph - 0.00 in Snow Light Snow
11:21 PM 19.0 °F 4.5 °F 17.1 °F 92% 29.85 in 0.8 mi NW 16.1 mph - 0.00 in Snow Light Snow
11:31 PM 19.0 °F 2.7 °F 17.1 °F 92% 29.85 in 1.5 mi NW 20.7 mph - 0.00 in Snow Light Snow
11:37 PM 19.0 °F 1.6 °F 16.0 °F 88% 29.85 in 3.0 mi NW 24.2 mph 29.9 mph 0.00 in Snow Light Snow
11:53 PM 18.0 °F 1.3 °F 15.1 °F 88% 29.96 in 4.0 mi NW 20.7 mph 28.8 mph 0.00 in Snow Light Snow